Time,TemperatureF,DewpointF,PressureIn,WindDirection,WindDirectionDegrees,WindSpeedMPH,WindSpeedGustMPH,Humidity,HourlyPrecipIn,Conditions,Clouds,dailyrainin,SoftwareType,DateUTC
2013-05-15 00:00:00,54.3,22.8,28.97,SW,225,0.0,0.0,29,0.00,,---,0.00,VWS V13.01,2013-05-15 04:00:00,
2013-05-15 00:01:00,54.3,22.8,28.97,SW,225,0.0,0.0,29,0.00,,---,0.00,VWS V13.01,2013-05-15 04:01:00,
2013-05-15 00:12:00,54.0,21.6,28.97,SW,225,0.0,0.0,28,0.00,,---,0.00,VWS V13.01,2013-05-15 04:12:00,
2013-05-15 00:13:00,54.0,21.6,28.97,SW,225,0.0,0.0,28,0.00,,---,0.00,VWS V13.01,2013-05-15 04:13:00,
2013-05-15 00:15:00,54.0,22.5,28.97,SW,225,0.0,0.0,29,0.00,,---,0.00,VWS V13.01,2013-05-15 04:15:00,
2013-05-15 00:20:00,54.0,22.5,28.97,SW,225,0.0,0.0,29,0.00,,---,0.00,VWS V13.01,2013-05-15 04:20:00,
2013-05-15 00:25:00,53.8,23.9,28.97,SW,225,0.0,0.0,31,0.00,,---,0.00,VWS V13.01,2013-05-15 04:25:00,
2013-05-15 00:30:00,53.8,22.3,28.97,SW,225,0.0,0.0,29,0.00,,---,0.00,VWS V13.01,2013-05-15 04:30:00,
2013-05-15 00:35:00,53.6,22.9,28.97,SW,225,0.0,0.0,30,0.00,,---,0.00,VWS V13.01,2013-05-15 04:35:00,
2013-05-15 00:40:00,53.6,22.9,28.97,SW,225,0.0,0.0,30,0.00,,---,0.00,VWS V13.01,2013-05-15 04:40:00,
2013-05-15 00:45:00,53.4,25.1,28.97,SW,225,0.0,0.0,33,0.00,,---,0.00,VWS V13.01,2013-05-15 04:45:00,
2013-05-15 00:50:00,53.1,23.2,28.97,SW,225,0.0,0.0,31,0.00,,---,0.00,VWS V13.01,2013-05-15 04:50:00,
2013-05-15 00:55:00,52.9,25.3,28.97,SW,225,0.0,0.0,34,0.00,,---,0.00,VWS V13.01,2013-05-15 04:55:00,
2013-05-15 01:00:00,52.7,24.4,28.97,SW,225,0.0,0.0,33,0.00,,---,0.00,VWS V13.01,2013-05-15 05:00:00,
2013-05-15 01:05:00,52.5,26.4,28.97,SW,225,0.0,0.0,36,0.00,,---,0.00,VWS V13.01,2013-05-15 05:05:00,
2013-05-15 01:11:00,52.2,25.4,28.97,SW,225,0.0,0.0,35,0.00,,---,0.00,VWS V13.01,2013-05-15 05:11:00,
2013-05-15 01:16:00,52.2,25.4,28.97,SW,225,0.0,0.0,35,0.00,,---,0.00,VWS V13.01,2013-05-15 05:16:00,
2013-05-15 01:21:00,52.2,26.0,28.97,SW,225,0.0,0.0,36,0.00,,---,0.00,VWS V13.01,2013-05-15 05:21:00,
2013-05-15 01:26:00,52.2,26.0,28.97,SW,225,0.0,0.0,36,0.00,,---,0.00,VWS V13.01,2013-05-15 05:26:00,
2013-05-15 01:31:00,52.0,25.9,28.97,SW,225,0.0,0.0,36,0.00,,---,0.00,VWS V13.01,2013-05-15 05:31:00,
2013-05-15 01:36:00,51.8,25.7,28.97,SW,225,0.0,0.0,36,0.00,,---,0.00,VWS V13.01,2013-05-15 05:36:00,
2013-05-15 01:41:00,51.8,25.7,28.97,SW,225,0.0,0.0,36,0.00,,---,0.00,VWS V13.01,2013-05-15 05:41:00,
2013-05-15 01:46:00,52.0,26.5,28.97,SW,225,0.0,0.0,37,0.00,,---,0.00,VWS V13.01,2013-05-15 05:46:00,
2013-05-15 01:51:00,52.0,25.9,28.97,SW,225,0.0,0.0,36,0.00,,---,0.00,VWS V13.01,2013-05-15 05:51:00,
2013-05-15 01:56:00,52.0,25.9,28.94,SW,225,0.0,0.0,36,0.00,,---,0.00,VWS V13.01,2013-05-15 05:56:00,
2013-05-15 02:01:00,52.0,26.5,28.94,SW,225,0.0,0.0,37,0.00,,---,0.00,VWS V13.01,2013-05-15 06:01:00,
2013-05-15 02:06:00,51.8,25.7,28.94,SW,225,0.0,0.0,36,0.00,,---,0.00,VWS V13.01,2013-05-15 06:06:00,
2013-05-15 02:11:00,51.6,26.2,28.97,SW,225,0.0,0.0,37,0.00,,---,0.00,VWS V13.01,2013-05-15 06:11:00,
2013-05-15 02:16:00,51.6,26.2,28.97,SW,225,0.0,0.0,37,0.00,,---,0.00,VWS V13.01,2013-05-15 06:16:00,
2013-05-15 02:21:00,51.4,26.0,28.97,SW,225,0.0,0.0,37,0.00,,---,0.00,VWS V13.01,2013-05-15 06:21:00,
2013-05-15 02:27:00,51.4,26.7,28.94,SW,225,0.0,0.0,38,0.00,,---,0.00,VWS V13.01,2013-05-15 06:27:00,
2013-05-15 02:32:00,51.4,26.7,28.94,SW,225,0.0,0.0,38,0.00,,---,0.00,VWS V13.01,2013-05-15 06:32:00,
2013-05-15 02:37:00,51.1,26.4,28.94,SW,225,0.0,0.0,38,0.00,,---,0.00,VWS V13.01,2013-05-15 06:37:00,
2013-05-15 02:42:00,51.3,26.5,28.94,SW,225,0.0,0.0,38,0.00,,---,0.00,VWS V13.01,2013-05-15 06:42:00,
2013-05-15 02:47:00,50.9,26.2,28.94,SW,225,0.0,0.0,38,0.00,,---,0.00,VWS V13.01,2013-05-15 06:47:00,
2013-05-15 02:52:00,50.9,26.2,28.94,SW,225,0.0,0.0,38,0.00,,---,0.00,VWS V13.01,2013-05-15 06:52:00,
2013-05-15 02:57:00,50.9,26.2,28.94,SW,225,0.0,0.0,38,0.00,,---,0.00,VWS V13.01,2013-05-15 06:57:00,
2013-05-15 03:02:00,50.9,26.2,28.94,SW,225,0.0,0.0,38,0.00,,---,0.00,VWS V13.01,2013-05-15 07:02:00,
2013-05-15 03:07:00,50.9,27.5,28.94,SW,225,0.0,0.0,40,0.00,,---,0.00,VWS V13.01,2013-05-15 07:07:00,
2013-05-15 03:12:00,50.9,27.5,28.94,SW,225,0.0,0.0,40,0.00,,---,0.00,VWS V13.01,2013-05-15 07:12:00,
2013-05-15 03:17:00,50.4,27.0,28.94,SW,225,0.0,0.0,40,0.00,,---,0.00,VWS V13.01,2013-05-15 07:17:00,
2013-05-15 03:22:00,50.4,27.6,28.94,SW,225,0.0,0.0,41,0.00,,---,0.00,VWS V13.01,2013-05-15 07:22:00,
2013-05-15 03:27:00,50.2,28.6,28.94,SW,225,0.0,0.0,43,0.00,,---,0.00,VWS V13.01,2013-05-15 07:27:00,
2013-05-15 03:32:00,50.2,28.0,28.94,SW,225,0.0,0.0,42,0.00,,---,0.00,VWS V13.01,2013-05-15 07:32:00,
2013-05-15 03:37:00,50.0,28.4,28.94,SW,225,0.0,0.0,43,0.00,,---,0.00,VWS V13.01,2013-05-15 07:37:00,
2013-05-15 03:43:00,50.0,28.4,28.94,SW,225,0.0,0.0,43,0.00,,---,0.00,VWS V13.01,2013-05-15 07:43:00,
2013-05-15 03:48:00,50.0,28.4,28.94,SW,225,0.0,0.0,43,0.00,,---,0.00,VWS V13.01,2013-05-15 07:48:00,
2013-05-15 03:53:00,49.6,29.2,28.94,SW,225,0.0,0.0,45,0.00,,---,0.00,VWS V13.01,2013-05-15 07:53:00,
2013-05-15 03:58:00,49.5,30.1,28.94,SW,225,0.0,0.0,47,0.00,,---,0.00,VWS V13.01,2013-05-15 07:58:00,
2013-05-15 04:03:00,49.3,29.9,28.94,SW,225,0.0,0.0,47,0.00,,---,0.00,VWS V13.01,2013-05-15 08:03:00,
2013-05-15 04:08:00,48.9,30.1,28.94,SW,225,0.0,0.0,48,0.00,,---,0.00,VWS V13.01,2013-05-15 08:08:00,
2013-05-15 04:13:00,48.7,29.9,28.94,SW,225,0.0,0.0,48,0.00,,---,0.00,VWS V13.01,2013-05-15 08:13:00,
2013-05-15 04:18:00,48.7,30.5,28.94,SW,225,0.0,0.0,49,0.00,,---,0.00,VWS V13.01,2013-05-15 08:18:00,
2013-05-15 04:23:00,48.6,30.8,28.94,SW,225,0.0,0.0,50,0.00,,---,0.00,VWS V13.01,2013-05-15 08:23:00,
2013-05-15 04:28:00,48.4,31.1,28.94,SW,225,0.0,0.0,51,0.00,,---,0.00,VWS V13.01,2013-05-15 08:28:00,
2013-05-15 04:33:00,48.6,31.8,28.94,SW,225,0.0,0.0,52,0.00,,---,0.00,VWS V13.01,2013-05-15 08:33:00,
2013-05-15 04:38:00,48.4,31.6,28.94,SW,225,0.0,0.0,52,0.00,,---,0.00,VWS V13.01,2013-05-15 08:38:00,
2013-05-15 04:43:00,48.4,31.6,28.94,SW,225,0.0,0.0,52,0.00,,---,0.00,VWS V13.01,2013-05-15 08:43:00,
2013-05-15 04:48:00,48.2,31.9,28.94,SW,225,0.0,0.0,53,0.00,,---,0.00,VWS V13.01,2013-05-15 08:48:00,
2013-05-15 04:53:00,48.0,31.7,28.91,SW,225,0.0,0.0,53,0.00,,---,0.00,VWS V13.01,2013-05-15 08:53:00,
2013-05-15 04:58:00,48.0,32.2,28.91,SW,225,0.0,0.0,54,0.00,,---,0.00,VWS V13.01,2013-05-15 08:58:00,
2013-05-15 05:03:00,47.7,32.3,28.91,SW,225,0.0,0.0,55,0.00,,---,0.00,VWS V13.01,2013-05-15 09:03:00,
2013-05-15 05:09:00,47.7,32.3,28.91,SW,225,0.0,0.0,55,0.00,,---,0.00,VWS V13.01,2013-05-15 09:09:00,
2013-05-15 05:14:00,47.5,32.1,28.91,SW,225,0.0,0.0,55,0.00,,---,0.00,VWS V13.01,2013-05-15 09:14:00,
2013-05-15 05:19:00,47.5,32.1,28.91,SW,225,0.0,0.0,55,0.00,,---,0.00,VWS V13.01,2013-05-15 09:19:00,
2013-05-15 05:24:00,47.3,32.4,28.91,SW,225,0.0,0.0,56,0.00,,---,0.00,VWS V13.01,2013-05-15 09:24:00,
2013-05-15 05:29:00,47.3,32.4,28.91,SW,225,0.0,0.0,56,0.00,,---,0.00,VWS V13.01,2013-05-15 09:29:00,
2013-05-15 05:34:00,47.1,32.7,28.91,SW,225,0.0,0.0,57,0.00,,---,0.00,VWS V13.01,2013-05-15 09:34:00,
2013-05-15 05:39:00,47.1,32.7,28.94,SW,225,0.0,0.0,57,0.00,,---,0.00,VWS V13.01,2013-05-15 09:39:00,
2013-05-15 05:44:00,47.3,33.7,28.94,SW,225,0.0,0.0,59,0.00,,---,0.00,VWS V13.01,2013-05-15 09:44:00,
2013-05-15 05:49:00,47.3,33.7,28.94,SW,225,0.0,0.0,59,0.00,,---,0.00,VWS V13.01,2013-05-15 09:49:00,
2013-05-15 05:54:00,47.3,33.7,28.91,SW,225,0.0,0.0,59,0.00,,---,0.00,VWS V13.01,2013-05-15 09:54:00,
2013-05-15 05:59:00,47.5,33.9,28.91,SW,225,0.0,0.0,59,0.00,,---,0.00,VWS V13.01,2013-05-15 09:59:00,
2013-05-15 06:04:00,47.3,33.7,28.91,SW,225,0.0,0.0,59,0.00,,---,0.00,VWS V13.01,2013-05-15 10:04:00,
2013-05-15 06:09:00,47.3,33.7,28.91,SW,225,0.0,0.0,59,0.00,,---,0.00,VWS V13.01,2013-05-15 10:09:00,
2013-05-15 06:15:00,47.3,33.7,28.91,SW,225,0.0,0.0,59,0.00,,---,0.00,VWS V13.01,2013-05-15 10:15:00,
2013-05-15 06:20:00,47.3,33.7,28.91,SW,225,0.0,0.0,59,0.00,,---,0.00,VWS V13.01,2013-05-15 10:20:00,
2013-05-15 06:25:00,47.3,34.1,28.91,SW,225,0.0,0.0,60,0.00,,---,0.00,VWS V13.01,2013-05-15 10:25:00,
2013-05-15 06:30:00,47.3,34.1,28.91,SW,225,0.0,0.0,60,0.00,,---,0.00,VWS V13.01,2013-05-15 10:30:00,
2013-05-15 06:35:00,47.5,34.3,28.91,SW,225,0.0,0.0,60,0.00,,---,0.00,VWS V13.01,2013-05-15 10:35:00,
2013-05-15 06:40:00,47.7,35.3,28.91,SW,225,0.0,0.0,62,0.00,,---,0.00,VWS V13.01,2013-05-15 10:40:00,
2013-05-15 06:45:00,47.8,35.5,28.91,SW,225,0.0,0.0,62,0.00,,---,0.00,VWS V13.01,2013-05-15 10:45:00,
2013-05-15 06:50:00,47.8,35.9,28.91,SW,225,0.0,0.0,63,0.00,,---,0.00,VWS V13.01,2013-05-15 10:50:00,
2013-05-15 06:55:00,48.0,35.6,28.91,SW,225,0.0,0.0,62,0.00,,---,0.00,VWS V13.01,2013-05-15 10:55:00,
2013-05-15 07:01:00,48.2,35.4,28.91,SW,225,0.0,0.0,61,0.00,,---,0.00,VWS V13.01,2013-05-15 11:01:00,
2013-05-15 07:08:00,48.4,35.6,28.91,SW,225,0.0,0.0,61,0.00,,---,0.00,VWS V13.01,2013-05-15 11:08:00,
2013-05-15 07:14:00,48.4,35.6,28.91,SW,225,0.0,0.0,61,0.00,,---,0.00,VWS V13.01,2013-05-15 11:14:00,
2013-05-15 07:19:00,48.6,35.7,28.91,SW,225,0.0,0.0,61,0.00,,---,0.00,VWS V13.01,2013-05-15 11:19:00,
2013-05-15 07:24:00,48.6,35.7,28.91,SW,225,0.0,0.0,61,0.00,,---,0.00,VWS V13.01,2013-05-15 11:24:00,
2013-05-15 07:30:00,48.7,36.3,28.91,SW,225,0.0,0.0,62,0.00,,---,0.00,VWS V13.01,2013-05-15 11:30:00,
2013-05-15 07:35:00,48.7,35.1,28.91,SW,225,0.0,0.0,59,0.00,,---,0.00,VWS V13.01,2013-05-15 11:35:00,
2013-05-15 07:42:00,49.1,36.2,28.91,SW,225,0.0,0.0,61,0.00,,---,0.00,VWS V13.01,2013-05-15 11:42:00,
2013-05-15 07:47:00,49.3,37.2,28.91,SW,225,0.0,0.0,63,0.00,,---,0.00,VWS V13.01,2013-05-15 11:47:00,
2013-05-15 07:54:00,49.5,37.8,28.91,SW,225,0.0,0.0,64,0.00,,---,0.00,VWS V13.01,2013-05-15 11:54:00,
2013-05-15 08:00:00,49.5,37.8,28.91,SW,225,0.0,0.0,64,0.00,,---,0.00,VWS V13.01,2013-05-15 12:00:00,
2013-05-15 08:05:00,49.8,36.1,28.91,SW,225,0.0,0.0,59,0.00,,---,0.00,VWS V13.01,2013-05-15 12:05:00,
2013-05-15 08:10:00,50.2,36.8,28.91,SW,225,0.0,0.0,60,0.00,,---,0.00,VWS V13.01,2013-05-15 12:10:00,
2013-05-15 08:15:00,50.4,37.0,28.91,SW,225,0.0,0.0,60,0.00,,---,0.00,VWS V13.01,2013-05-15 12:15:00,
2013-05-15 08:20:00,50.5,35.0,28.91,SW,225,0.0,0.0,55,0.00,,---,0.00,VWS V13.01,2013-05-15 12:20:00,
2013-05-15 08:26:00,50.5,34.1,28.91,SW,225,0.0,0.0,53,0.00,,---,0.00,VWS V13.01,2013-05-15 12:26:00,
2013-05-15 08:32:00,50.9,34.4,28.91,SW,225,0.0,0.0,53,0.00,,---,0.00,VWS V13.01,2013-05-15 12:32:00,
2013-05-15 08:37:00,51.3,35.2,28.91,SW,225,0.0,0.0,54,0.00,,---,0.00,VWS V13.01,2013-05-15 12:37:00,
2013-05-15 08:42:00,51.6,35.5,28.91,SW,225,0.0,0.0,54,0.00,,---,0.00,VWS V13.01,2013-05-15 12:42:00,
2013-05-15 08:47:00,52.0,34.9,28.91,SW,225,0.0,0.0,52,0.00,,---,0.00,VWS V13.01,2013-05-15 12:47:00,
2013-05-15 08:53:00,52.3,35.2,28.91,SW,225,0.0,0.0,52,0.00,,---,0.00,VWS V13.01,2013-05-15 12:53:00,
2013-05-15 08:59:00,52.9,35.8,28.91,SW,225,0.0,0.0,52,0.00,,---,0.00,VWS V13.01,2013-05-15 12:59:00,
2013-05-15 09:05:00,53.2,36.1,28.91,SW,225,0.0,0.0,52,0.00,,---,0.00,VWS V13.01,2013-05-15 13:05:00,
2013-05-15 09:11:00,53.4,36.2,28.91,SW,225,0.0,0.0,52,0.00,,---,0.00,VWS V13.01,2013-05-15 13:11:00,
2013-05-15 09:16:00,53.6,35.9,28.91,SW,225,0.0,0.0,51,0.00,,---,0.00,VWS V13.01,2013-05-15 13:16:00,
2013-05-15 09:21:00,54.0,35.2,28.91,SW,225,0.0,0.0,49,0.00,,---,0.00,VWS V13.01,2013-05-15 13:21:00,
2013-05-15 09:27:00,54.5,35.2,28.91,SW,225,0.0,0.0,48,0.00,,---,0.00,VWS V13.01,2013-05-15 13:27:00,
2013-05-15 09:33:00,55.0,35.2,28.91,SW,225,0.0,0.0,47,0.00,,---,0.00,VWS V13.01,2013-05-15 13:33:00,
2013-05-15 09:38:00,55.0,35.2,28.88,SW,225,0.0,0.0,47,0.00,,---,0.00,VWS V13.01,2013-05-15 13:38:00,
2013-05-15 09:45:00,57.2,36.6,28.88,SW,225,0.0,0.0,46,0.00,,---,0.00,VWS V13.01,2013-05-15 13:45:00,
2013-05-15 09:50:00,57.6,36.4,28.88,SW,225,0.0,0.0,45,0.00,,---,0.00,VWS V13.01,2013-05-15 13:50:00,
2013-05-15 09:58:00,58.6,36.2,28.88,SW,225,0.0,0.0,43,0.00,,---,0.00,VWS V13.01,2013-05-15 13:58:00,
2013-05-15 10:03:00,58.8,35.2,28.88,SW,225,0.0,0.0,41,0.00,,---,0.00,VWS V13.01,2013-05-15 14:03:00,
2013-05-15 10:09:00,59.7,34.1,28.85,SSW,202,0.0,0.0,38,0.00,,---,0.00,VWS V13.01,2013-05-15 14:09:00,
2013-05-15 10:14:00,60.3,34.6,28.85,SSW,202,0.0,0.0,38,0.00,,---,0.00,VWS V13.01,2013-05-15 14:14:00,
2013-05-15 10:20:00,61.2,35.4,28.85,SSW,202,0.0,0.0,38,0.00,,---,0.00,VWS V13.01,2013-05-15 14:20:00,
2013-05-15 10:25:00,61.3,35.5,28.85,SSW,202,0.0,0.0,38,0.00,,---,0.00,VWS V13.01,2013-05-15 14:25:00,
2013-05-15 10:31:00,61.9,36.0,28.85,SW,225,0.0,0.0,38,0.00,,---,0.00,VWS V13.01,2013-05-15 14:31:00,
2013-05-15 10:36:00,62.2,37.0,28.85,SW,225,0.0,0.0,39,0.00,,---,0.00,VWS V13.01,2013-05-15 14:36:00,
2013-05-15 10:42:00,62.4,35.8,28.85,SW,225,0.0,0.0,37,0.00,,---,0.00,VWS V13.01,2013-05-15 14:42:00,
2013-05-15 10:48:00,62.4,35.8,28.85,SW,225,0.0,0.0,37,0.00,,---,0.00,VWS V13.01,2013-05-15 14:48:00,
2013-05-15 10:55:00,63.1,35.8,28.85,SW,225,0.0,0.0,36,0.00,,---,0.00,VWS V13.01,2013-05-15 14:55:00,
2013-05-15 11:01:00,63.7,36.2,28.85,South,180,0.0,0.0,36,0.00,,---,0.00,VWS V13.01,2013-05-15 15:01:00,
2013-05-15 11:07:00,64.9,36.7,28.85,South,180,0.0,0.0,35,0.00,,---,0.00,VWS V13.01,2013-05-15 15:07:00,
2013-05-15 11:12:00,66.0,37.6,28.85,SSW,202,0.0,0.0,35,0.00,,---,0.00,VWS V13.01,2013-05-15 15:12:00,
2013-05-15 11:17:00,67.1,37.8,28.85,SSW,202,0.0,0.0,34,0.00,,---,0.00,VWS V13.01,2013-05-15 15:17:00,
2013-05-15 11:22:00,68.4,38.9,28.82,South,180,0.0,0.0,34,0.00,,---,0.00,VWS V13.01,2013-05-15 15:22:00,
2013-05-15 11:27:00,68.9,38.6,28.82,NW,315,0.0,0.0,33,0.00,,---,0.00,VWS V13.01,2013-05-15 15:27:00,
2013-05-15 11:33:00,69.8,38.6,28.82,WSW,248,0.0,0.0,32,0.00,,---,0.00,VWS V13.01,2013-05-15 15:33:00,
2013-05-15 11:38:00,70.2,39.0,28.82,WSW,248,0.0,0.0,32,0.00,,---,0.00,VWS V13.01,2013-05-15 15:38:00,
2013-05-15 11:43:00,70.3,39.1,28.82,WSW,248,0.0,0.0,32,0.00,,---,0.00,VWS V13.01,2013-05-15 15:43:00,
2013-05-15 11:49:00,70.9,39.6,28.82,WSW,248,0.0,0.0,32,0.00,,---,0.00,VWS V13.01,2013-05-15 15:49:00,
2013-05-15 11:54:00,71.2,39.9,28.82,WSW,248,0.0,0.0,32,0.00,,---,0.00,VWS V13.01,2013-05-15 15:54:00,
2013-05-15 11:59:00,71.6,40.2,28.82,WSW,248,0.0,0.0,32,0.00,,---,0.00,VWS V13.01,2013-05-15 15:59:00,
2013-05-15 12:04:00,72.5,41.8,28.82,WSW,248,0.0,0.0,33,0.00,,---,0.00,VWS V13.01,2013-05-15 16:04:00,
2013-05-15 12:10:00,73.2,42.4,28.82,SW,225,0.0,0.0,33,0.00,,---,0.00,VWS V13.01,2013-05-15 16:10:00,
2013-05-15 12:15:00,74.1,42.4,28.82,SW,225,0.0,0.0,32,0.00,,---,0.00,VWS V13.01,2013-05-15 16:15:00,
2013-05-15 12:20:00,75.0,43.2,28.82,North,0,0.0,0.0,32,0.00,,---,0.00,VWS V13.01,2013-05-15 16:20:00,
2013-05-15 12:25:00,75.0,43.2,28.82,North,0,0.0,0.0,32,0.00,,---,0.00,VWS V13.01,2013-05-15 16:25:00,
2013-05-15 12:31:00,76.3,43.5,28.82,North,0,0.0,0.0,31,0.00,,---,0.00,VWS V13.01,2013-05-15 16:31:00,
2013-05-15 12:36:00,77.5,41.0,28.82,NW,315,0.0,0.0,27,0.00,,---,0.00,VWS V13.01,2013-05-15 16:36:00,
2013-05-15 12:42:00,77.7,42.0,28.82,WNW,292,0.0,0.0,28,0.00,,---,0.00,VWS V13.01,2013-05-15 16:42:00,
2013-05-15 12:47:00,78.1,42.4,28.82,WNW,292,0.0,0.0,28,0.00,,---,0.00,VWS V13.01,2013-05-15 16:47:00,
2013-05-15 12:53:00,77.4,39.8,28.82,SE,135,0.0,0.0,26,0.00,,---,0.00,VWS V13.01,2013-05-15 16:53:00,
2013-05-15 12:58:00,75.7,36.4,28.82,NE,45,0.0,0.0,24,0.00,,---,0.00,VWS V13.01,2013-05-15 16:58:00,
2013-05-15 13:04:00,75.7,36.4,28.82,NE,45,0.0,0.0,24,0.00,,---,0.00,VWS V13.01,2013-05-15 17:04:00,
2013-05-15 13:10:00,73.6,34.6,28.85,NE,45,0.0,0.0,24,0.00,,---,0.00,VWS V13.01,2013-05-15 17:10:00,
2013-05-15 13:15:00,73.9,34.9,28.85,NE,45,0.0,0.0,24,0.00,,---,0.00,VWS V13.01,2013-05-15 17:15:00,
2013-05-15 13:21:00,74.5,34.3,28.85,NE,45,0.0,0.0,23,0.00,,---,0.00,VWS V13.01,2013-05-15 17:21:00,
2013-05-15 13:28:00,76.3,35.8,28.85,NE,45,0.0,0.0,23,0.00,,---,0.00,VWS V13.01,2013-05-15 17:28:00,
2013-05-15 13:33:00,77.0,35.3,28.85,NE,45,0.0,0.0,22,0.00,,---,0.00,VWS V13.01,2013-05-15 17:33:00,
2013-05-15 13:40:00,78.1,35.0,28.85,NE,45,0.0,0.0,21,0.00,,---,0.00,VWS V13.01,2013-05-15 17:40:00,
2013-05-15 13:46:00,78.6,35.5,28.85,NE,45,0.0,0.0,21,0.00,,---,0.00,VWS V13.01,2013-05-15 17:46:00,
2013-05-15 13:51:00,79.0,35.8,28.85,NE,45,0.0,0.0,21,0.00,,---,0.00,VWS V13.01,2013-05-15 17:51:00,
2013-05-15 13:56:00,80.4,37.0,28.82,NE,45,0.0,0.0,21,0.00,,---,0.00,VWS V13.01,2013-05-15 17:56:00,
2013-05-15 14:01:00,81.9,36.9,28.82,NE,45,0.0,0.0,20,0.00,,---,0.00,VWS V13.01,2013-05-15 18:01:00,
2013-05-15 14:06:00,82.4,36.0,28.79,NE,45,0.0,0.0,19,0.00,,---,0.00,VWS V13.01,2013-05-15 18:06:00,
2013-05-15 14:12:00,83.5,36.9,28.79,NW,315,0.0,0.0,19,0.00,,---,0.00,VWS V13.01,2013-05-15 18:12:00,
2013-05-15 14:18:00,84.0,37.4,28.79,SW,225,0.0,0.0,19,0.00,,---,0.00,VWS V13.01,2013-05-15 18:18:00,
2013-05-15 14:24:00,85.1,38.2,28.79,SW,225,0.0,0.0,19,0.00,,---,0.00,VWS V13.01,2013-05-15 18:24:00,
2013-05-15 14:29:00,86.5,38.0,28.79,SW,225,0.0,0.0,18,0.00,,---,0.00,VWS V13.01,2013-05-15 18:29:00,
2013-05-15 14:35:00,88.2,39.4,28.79,SW,225,0.0,0.0,18,0.00,,---,0.00,VWS V13.01,2013-05-15 18:35:00,
2013-05-15 14:40:00,89.2,35.6,28.79,West,270,0.0,0.0,15,0.00,,---,0.00,VWS V13.01,2013-05-15 18:40:00,
2013-05-15 14:45:00,90.3,36.5,28.79,ENE,68,0.0,0.0,15,0.00,,---,0.00,VWS V13.01,2013-05-15 18:45:00,
2013-05-15 14:51:00,90.5,36.6,28.79,SSW,202,0.0,0.0,15,0.00,,---,0.00,VWS V13.01,2013-05-15 18:51:00,
2013-05-15 14:56:00,91.0,37.0,28.79,WNW,292,0.0,2.7,15,0.00,,---,0.00,VWS V13.01,2013-05-15 18:56:00,
2013-05-15 15:01:00,91.0,37.0,28.79,West,270,0.0,2.7,15,0.00,,---,0.00,VWS V13.01,2013-05-15 19:01:00,
2013-05-15 15:06:00,91.0,37.0,28.76,South,180,0.0,0.0,15,0.00,,---,0.00,VWS V13.01,2013-05-15 19:06:00,
2013-05-15 15:12:00,91.8,32.0,28.76,SSW,202,0.0,0.0,12,0.00,,---,0.00,VWS V13.01,2013-05-15 19:12:00,
2013-05-15 15:18:00,91.4,31.7,28.76,North,0,0.0,0.0,12,0.00,,---,0.00,VWS V13.01,2013-05-15 19:18:00,
2013-05-15 15:23:00,91.9,32.1,28.76,South,180,0.0,0.0,12,0.00,,---,0.00,VWS V13.01,2013-05-15 19:23:00,
2013-05-15 15:28:00,93.2,31.0,28.76,SSW,202,0.0,0.0,11,0.00,,---,0.00,VWS V13.01,2013-05-15 19:28:00,
2013-05-15 15:34:00,93.0,33.0,28.76,SE,135,0.0,0.0,12,0.00,,---,0.00,VWS V13.01,2013-05-15 19:34:00,
2013-05-15 15:39:00,93.6,31.2,28.76,SE,135,0.0,0.0,11,0.00,,---,0.00,VWS V13.01,2013-05-15 19:39:00,
2013-05-15 15:45:00,93.9,31.5,28.76,North,0,0.0,0.0,11,0.00,,---,0.00,VWS V13.01,2013-05-15 19:45:00,
2013-05-15 15:50:00,93.4,31.1,28.76,SE,135,0.0,0.0,11,0.00,,---,0.00,VWS V13.01,2013-05-15 19:50:00,
2013-05-15 15:56:00,95.0,32.3,28.76,NE,45,0.0,0.0,11,0.00,,---,0.00,VWS V13.01,2013-05-15 19:56:00,
2013-05-15 16:02:00,95.2,32.5,28.76,East,90,0.0,0.0,11,0.00,,---,0.00,VWS V13.01,2013-05-15 20:02:00,
2013-05-15 16:07:00,94.8,32.2,28.76,South,180,0.0,0.0,11,0.00,,---,0.00,VWS V13.01,2013-05-15 20:07:00,
2013-05-15 16:12:00,92.3,32.4,28.76,NW,315,0.0,0.0,12,0.00,,---,0.00,VWS V13.01,2013-05-15 20:12:00,
2013-05-15 16:18:00,94.1,31.6,28.76,South,180,0.0,0.0,11,0.00,,---,0.00,VWS V13.01,2013-05-15 20:18:00,
2013-05-15 16:24:00,93.9,31.5,28.73,West,270,0.0,0.0,11,0.00,,---,0.00,VWS V13.01,2013-05-15 20:24:00,
2013-05-15 16:29:00,93.4,31.1,28.73,SE,135,0.0,0.0,11,0.00,,---,0.00,VWS V13.01,2013-05-15 20:29:00,
2013-05-15 16:34:00,92.5,32.5,28.73,SE,135,0.0,0.0,12,0.00,,---,0.00,VWS V13.01,2013-05-15 20:34:00,
2013-05-15 16:39:00,92.1,32.3,28.76,SE,135,0.0,0.0,12,0.00,,---,0.00,VWS V13.01,2013-05-15 20:39:00,
2013-05-15 16:44:00,92.5,32.5,28.76,South,180,0.0,0.0,12,0.00,,---,0.00,VWS V13.01,2013-05-15 20:44:00,
2013-05-15 16:50:00,91.8,32.0,28.76,South,180,0.0,0.0,12,0.00,,---,0.00,VWS V13.01,2013-05-15 20:50:00,
2013-05-15 16:56:00,91.6,31.9,28.76,SE,135,0.0,0.0,12,0.00,,---,0.00,VWS V13.01,2013-05-15 20:56:00,
2013-05-15 17:01:00,90.7,31.2,28.76,South,180,0.0,0.0,12,0.00,,---,0.00,VWS V13.01,2013-05-15 21:01:00,
2013-05-15 17:07:00,90.1,30.7,28.76,SE,135,0.0,0.0,12,0.00,,---,0.00,VWS V13.01,2013-05-15 21:07:00,
2013-05-15 17:12:00,89.6,30.3,28.76,East,90,0.0,0.0,12,0.00,,---,0.00,VWS V13.01,2013-05-15 21:12:00,
2013-05-15 17:18:00,89.1,31.9,28.76,SE,135,0.0,0.0,13,0.00,,---,0.00,VWS V13.01,2013-05-15 21:18:00,
2013-05-15 17:24:00,88.2,31.2,28.73,South,180,0.0,0.0,13,0.00,,---,0.00,VWS V13.01,2013-05-15 21:24:00,
2013-05-15 17:29:00,88.0,31.0,28.73,SE,135,0.0,0.0,13,0.00,,---,0.00,VWS V13.01,2013-05-15 21:29:00,
2013-05-15 17:34:00,88.0,31.0,28.73,South,180,0.0,0.0,13,0.00,,---,0.00,VWS V13.01,2013-05-15 21:34:00,
2013-05-15 17:40:00,88.2,31.2,28.73,ENE,68,0.0,0.0,13,0.00,,---,0.00,VWS V13.01,2013-05-15 21:40:00,
2013-05-15 17:45:00,87.8,30.9,28.73,SW,225,0.0,0.0,13,0.00,,---,0.00,VWS V13.01,2013-05-15 21:45:00,
2013-05-15 17:51:00,87.1,30.3,28.73,South,180,0.0,0.0,13,0.00,,---,0.00,VWS V13.01,2013-05-15 21:51:00,
2013-05-15 17:57:00,86.9,30.2,28.73,SE,135,0.0,0.0,13,0.00,,---,0.00,VWS V13.01,2013-05-15 21:57:00,
2013-05-15 18:02:00,86.7,30.0,28.73,SE,135,0.0,0.0,13,0.00,,---,0.00,VWS V13.01,2013-05-15 22:02:00,
2013-05-15 18:08:00,85.8,29.4,28.73,SE,135,0.0,0.0,13,0.00,,---,0.00,VWS V13.01,2013-05-15 22:08:00,
2013-05-15 18:13:00,85.8,29.4,28.76,SE,135,0.0,0.0,13,0.00,,---,0.00,VWS V13.01,2013-05-15 22:13:00,
2013-05-15 18:18:00,85.6,29.2,28.76,SE,135,0.0,0.0,13,0.00,,---,0.00,VWS V13.01,2013-05-15 22:18:00,
2013-05-15 18:24:00,85.3,28.9,28.73,SE,135,0.0,0.0,13,0.00,,---,0.00,VWS V13.01,2013-05-15 22:24:00,
2013-05-15 18:30:00,84.0,33.0,28.73,SE,135,0.0,0.0,16,0.00,,---,0.00,VWS V13.01,2013-05-15 22:30:00,
2013-05-15 18:35:00,82.8,32.0,28.73,SE,135,0.0,0.0,16,0.00,,---,0.00,VWS V13.01,2013-05-15 22:35:00,
2013-05-15 18:42:00,81.9,32.8,28.76,SE,135,0.0,0.0,17,0.00,,---,0.00,VWS V13.01,2013-05-15 22:42:00,
2013-05-15 18:48:00,81.3,32.4,28.76,SE,135,0.0,0.0,17,0.00,,---,0.00,VWS V13.01,2013-05-15 22:48:00,
2013-05-15 18:54:00,79.0,35.8,28.76,SE,135,0.0,0.0,21,0.00,,---,0.00,VWS V13.01,2013-05-15 22:54:00,
2013-05-15 19:01:00,79.2,34.7,28.76,SE,135,0.0,0.0,20,0.00,,---,0.00,VWS V13.01,2013-05-15 23:01:00,
2013-05-15 19:06:00,78.3,36.3,28.76,SE,135,0.0,0.0,22,0.00,,---,0.00,VWS V13.01,2013-05-15 23:06:00,
2013-05-15 19:11:00,78.1,36.2,28.76,SE,135,0.0,0.0,22,0.00,,---,0.00,VWS V13.01,2013-05-15 23:11:00,
2013-05-15 19:17:00,77.4,35.6,28.76,North,0,0.0,0.0,22,0.00,,---,0.00,VWS V13.01,2013-05-15 23:17:00,
2013-05-15 19:22:00,77.4,36.7,28.76,North,0,0.0,0.0,23,0.00,,---,0.00,VWS V13.01,2013-05-15 23:22:00,
2013-05-15 19:27:00,77.5,34.6,28.76,South,180,0.0,0.0,21,0.00,,---,0.00,VWS V13.01,2013-05-15 23:27:00,
2013-05-15 19:33:00,77.9,36.0,28.76,West,270,0.0,0.0,22,0.00,,---,0.00,VWS V13.01,2013-05-15 23:33:00,
2013-05-15 19:38:00,77.0,36.4,28.76,West,270,0.0,0.0,23,0.00,,---,0.00,VWS V13.01,2013-05-15 23:38:00,
2013-05-15 19:43:00,76.8,35.1,28.76,East,90,0.0,0.0,22,0.00,,---,0.00,VWS V13.01,2013-05-15 23:43:00,
2013-05-15 19:49:00,76.6,37.2,28.76,East,90,0.0,0.0,24,0.00,,---,0.00,VWS V13.01,2013-05-15 23:49:00,
2013-05-15 19:54:00,75.9,38.6,28.76,South,180,0.0,0.0,26,0.00,,---,0.00,VWS V13.01,2013-05-15 23:54:00,
2013-05-15 20:00:00,76.6,35.0,28.76,South,180,0.0,0.0,22,0.00,,---,0.00,VWS V13.01,2013-05-16 00:00:00,
2013-05-15 20:06:00,77.5,34.6,28.76,SW,225,0.0,0.0,21,0.00,,---,0.00,VWS V13.01,2013-05-16 00:06:00,
2013-05-15 20:11:00,78.6,35.5,28.76,SSE,158,0.0,0.0,21,0.00,,---,0.00,VWS V13.01,2013-05-16 00:11:00,
2013-05-15 20:16:00,79.5,35.0,28.76,North,0,0.0,0.0,20,0.00,,---,0.00,VWS V13.01,2013-05-16 00:16:00,
2013-05-15 20:22:00,79.2,34.7,28.79,SW,225,0.0,0.0,20,0.00,,---,0.00,VWS V13.01,2013-05-16 00:22:00,
2013-05-15 20:27:00,78.6,35.5,28.79,SSE,158,0.0,0.0,21,0.00,,---,0.00,VWS V13.01,2013-05-16 00:27:00,
2013-05-15 20:32:00,79.7,35.1,28.79,South,180,0.0,0.0,20,0.00,,---,0.00,VWS V13.01,2013-05-16 00:32:00,
2013-05-15 20:39:00,80.4,35.7,28.79,South,180,0.0,0.0,20,0.00,,---,0.00,VWS V13.01,2013-05-16 00:39:00,
2013-05-15 20:44:00,80.6,35.9,28.79,SSE,158,0.0,0.0,20,0.00,,---,0.00,VWS V13.01,2013-05-16 00:44:00,
2013-05-15 20:51:00,79.2,34.7,28.79,SSE,158,0.0,0.0,20,0.00,,---,0.00,VWS V13.01,2013-05-16 00:51:00,
2013-05-15 20:56:00,79.2,35.9,28.79,SSE,158,0.0,0.0,21,0.00,,---,0.00,VWS V13.01,2013-05-16 00:56:00,
2013-05-15 21:01:00,77.0,35.3,28.79,SSE,158,0.0,0.0,22,0.00,,---,0.00,VWS V13.01,2013-05-16 01:01:00,
2013-05-15 21:08:00,75.0,37.8,28.79,SSE,158,0.0,0.0,26,0.00,,---,0.00,VWS V13.01,2013-05-16 01:08:00,
2013-05-15 21:13:00,74.8,37.7,28.79,South,180,0.0,0.0,26,0.00,,---,0.00,VWS V13.01,2013-05-16 01:13:00,
2013-05-15 21:19:00,74.1,40.7,28.79,South,180,0.0,0.0,30,0.00,,---,0.00,VWS V13.01,2013-05-16 01:19:00,
2013-05-15 21:24:00,73.6,41.1,28.82,South,180,0.0,0.0,31,0.00,,---,0.00,VWS V13.01,2013-05-16 01:24:00,
2013-05-15 21:29:00,73.2,41.6,28.82,South,180,0.0,0.0,32,0.00,,---,0.00,VWS V13.01,2013-05-16 01:29:00,
2013-05-15 21:35:00,73.0,41.5,28.82,South,180,0.0,0.0,32,0.00,,---,0.00,VWS V13.01,2013-05-16 01:35:00,
2013-05-15 21:41:00,73.0,41.5,28.82,South,180,0.0,0.0,32,0.00,,---,0.00,VWS V13.01,2013-05-16 01:41:00,
2013-05-15 21:46:00,72.3,41.6,28.82,South,180,0.0,0.0,33,0.00,,---,0.00,VWS V13.01,2013-05-16 01:46:00,
2013-05-15 21:51:00,72.1,41.5,28.82,South,180,0.0,0.0,33,0.00,,---,0.00,VWS V13.01,2013-05-16 01:51:00,
2013-05-15 21:56:00,73.8,41.3,28.82,North,0,0.0,0.0,31,0.00,,---,0.00,VWS V13.01,2013-05-16 01:56:00,
2013-05-15 22:01:00,73.0,41.5,28.82,North,0,0.0,0.0,32,0.00,,---,0.00,VWS V13.01,2013-05-16 02:01:00,
2013-05-15 22:07:00,72.5,41.8,28.82,North,0,0.0,0.0,33,0.00,,---,0.00,VWS V13.01,2013-05-16 02:07:00,
2013-05-15 22:12:00,72.3,41.6,28.82,North,0,0.0,0.0,33,0.00,,---,0.00,VWS V13.01,2013-05-16 02:12:00,
2013-05-15 22:17:00,72.5,41.8,28.82,South,180,0.0,0.0,33,0.00,,---,0.00,VWS V13.01,2013-05-16 02:17:00,
2013-05-15 22:22:00,73.9,39.7,28.82,South,180,0.0,0.0,29,0.00,,---,0.00,VWS V13.01,2013-05-16 02:22:00,
2013-05-15 22:28:00,76.8,37.3,28.82,South,180,0.0,0.0,24,0.00,,---,0.00,VWS V13.01,2013-05-16 02:28:00,
2013-05-15 22:34:00,75.7,38.5,28.82,South,180,0.0,0.0,26,0.00,,---,0.00,VWS V13.01,2013-05-16 02:34:00,
2013-05-15 22:39:00,74.1,41.6,28.82,South,180,0.0,0.0,31,0.00,,---,0.00,VWS V13.01,2013-05-16 02:39:00,
2013-05-15 22:44:00,73.6,40.3,28.82,South,180,0.0,0.0,30,0.00,,---,0.00,VWS V13.01,2013-05-16 02:44:00,
2013-05-15 22:49:00,74.1,39.0,28.82,South,180,0.0,0.0,28,0.00,,---,0.00,VWS V13.01,2013-05-16 02:49:00,
2013-05-15 22:54:00,73.6,41.1,28.82,WNW,292,0.0,0.0,31,0.00,,---,0.00,VWS V13.01,2013-05-16 02:54:00,
2013-05-15 22:59:00,74.7,37.5,28.82,SSW,202,0.0,0.0,26,0.00,,---,0.00,VWS V13.01,2013-05-16 02:59:00,
2013-05-15 23:05:00,75.9,36.6,28.82,South,180,0.0,0.0,24,0.00,,---,0.00,VWS V13.01,2013-05-16 03:05:00,
2013-05-15 23:10:00,77.9,36.0,28.82,SE,135,0.0,0.0,22,0.00,,---,0.00,VWS V13.01,2013-05-16 03:10:00,
2013-05-15 23:17:00,78.6,35.5,28.82,SSE,158,0.0,0.0,21,0.00,,---,0.00,VWS V13.01,2013-05-16 03:17:00,
2013-05-15 23:22:00,78.8,35.6,28.82,South,180,0.0,0.0,21,0.00,,---,0.00,VWS V13.01,2013-05-16 03:22:00,
2013-05-15 23:27:00,78.8,35.6,28.82,South,180,0.0,0.0,21,0.00,,---,0.00,VWS V13.01,2013-05-16 03:27:00,
2013-05-15 23:33:00,78.8,35.6,28.82,SE,135,0.0,0.0,21,0.00,,---,0.00,VWS V13.01,2013-05-16 03:33:00,
2013-05-15 23:38:00,79.0,34.5,28.82,South,180,0.0,0.0,20,0.00,,---,0.00,VWS V13.01,2013-05-16 03:38:00,
2013-05-15 23:43:00,79.0,34.5,28.79,South,180,0.0,0.0,20,0.00,,---,0.00,VWS V13.01,2013-05-16 03:43:00,
2013-05-15 23:49:00,78.8,34.4,28.79,SE,135,0.0,0.0,20,0.00,,---,0.00,VWS V13.01,2013-05-16 03:49:00,
2013-05-15 23:54:00,79.0,34.5,28.79,SE,135,0.0,0.0,20,0.00,,---,0.00,VWS V13.01,2013-05-16 03:54:00,